Вернуться в каталог

METEOR 2-6 DEB

LostPO
NORAD 38836·DEBRIS·🇷🇺 Russia

Запущен Sep 9, 1980 с Plesetsk Cosmodrome

Loading…

Ближайшие Пролёты (ближайшие 24 часа)

TLE

УстаревшееSource: Space-Track

Эпоха: Sep 28, 2024, 05:51 UTC

1 38836U 80073N   24272.24396014  .00049468  00000-0  11416-1 0  9997
2 38836  81.2021 243.4553 0020699 182.8315 239.4494 14.54844368622859

Отслеживайте METEOR 2-6 DEB в реальном времени с AllMySat

Download on the App Store